This demonstration page uses our WeatherBlox Daily Observations layout. Learn more.

39.29038, -76.61219

Hourly Observations for July 16, 2015

Temp ( °F °C ) Dew Point ( °F °C ) Humidity (%) Winds ( mph kmh ) Pressure ( in mb ) Visibility ( mi km ) Precip ( " mm )
12:54 am 00:54 undefined 69 20.6 57 13.9 66 66 undefined N/A 29.93 1014 N/A 0 0
1:54 am 01:54 Cloudy 62 16.7 37 2.8 40 40 undefined N/A 29.85 1011 N/A 0 0
2:54 am 02:54 undefined 68 20 54 12.2 61 61 undefined N/A 29.96 1015 N/A 0 0
3:54 am 03:54 undefined 67 19.4 53 11.7 61 61 undefined N/A 29.97 1015 N/A 0 0
4:54 am 04:54 undefined 66 18.9 53 11.7 63 63 undefined N/A 29.98 1015 N/A 0 0
5:54 am 05:54 undefined 66 18.9 53 11.7 63 63 undefined N/A 30.01 1016 N/A 0 0
6:54 am 06:54 Cloudy 72 22.2 45 7.2 38 38 undefined N/A 29.84 1010 N/A 0 0
7:54 am 07:54 undefined 67 19.4 52 11.1 59 59 undefined N/A 30.03 1017 N/A 0 0
8:54 am 08:54 undefined 69 20.6 52 11.1 55 55 undefined N/A 30.05 1018 N/A 0 0
9:54 am 09:54 undefined 71 21.7 50 10 47 47 undefined N/A 30.04 1017 N/A 0 0
10:54 am 10:54 Mostly Sunny 74 23.3 52 11.1 46 46 undefined N/A 30.05 1018 N/A 0 0
11:54 am 11:54 undefined 76 24.4 52 11.1 43 43 undefined N/A 30.05 1018 N/A 0 0
12:54 pm 12:54 undefined 77 25 54 12.2 45 45 undefined N/A 30.06 1018 N/A 0 0
1:54 pm 13:54 undefined 79 26.1 55 12.8 44 44 undefined N/A 30.05 1018 N/A 0 0
2:54 pm 14:54 undefined 81 27.2 58 14.4 45 45 undefined N/A 30.04 1017 N/A 0 0
3:54 pm 15:54 undefined 79 26.1 59 15 50 50 undefined N/A 30.04 1017 N/A 0 0
4:54 pm 16:54 Cloudy 80 26.7 58 14.4 47 47 undefined N/A 30.04 1017 N/A 0 0
5:54 pm 17:54 undefined 79 26.1 59 15 50 50 undefined N/A 30.03 1017 N/A 0 0
6:54 pm 18:54 undefined 79 26.1 59 15 50 50 undefined N/A 30.04 1017 N/A 0 0
7:54 pm 19:54 Mostly Cloudy 78 25.6 59 15 52 52 undefined N/A 29.77 1008 N/A 0 0
8:54 pm 20:54 Partly Cloudy 77 25 57 13.9 50 50 undefined N/A 30.05 1018 N/A 0 0
9:54 pm 21:54 undefined 77 25 58 14.4 52 52 undefined N/A 30.06 1018 N/A 0 0
10:54 pm 22:54 undefined 75 23.9 59 15 58 58 undefined N/A 30.06 1018 N/A 0 0
11:54 pm 23:54 Cloudy 74 23.3 60 15.6 62 62 undefined N/A 30.06 1018 N/A 0 0

Powered by AerisWeather